Simultaneous Nadir Overpasses (SNOs) Predictions

Prediction of SNOs between LANDSAT-8 and NOAA-19 Satellite Orbit:

Table of predicted SNOs for the next 14.0 days since TLE Epoch: 12/22/2018
Index Date (LANDSAT-8) Time (LANDSAT-8) Lat,Lon (LANDSAT-8) SZA (LANDSAT-8 ) Date (NOAA-19) Time (NOAA-19) Lat,Lon (NOAA-19) SZA (NOAA-19 ) Distance(km) Time Diff (sec)
1 12/24/2018 03:56:21 78.30, 137.83 102.13 12/24/2018 03:55:16 78.31, 137.88 102.13 1.49 65
2 12/24/2018 04:45:49 -78.27, -54.69 77.91 12/24/2018 04:46:10 -78.28, -54.65 77.90 1.30 21
3 12/26/2018 10:19:33 78.27, 41.90 102.02 12/26/2018 10:19:46 78.30, 41.90 102.05 2.71 13
4 12/28/2018 15:53:18 -78.31, 138.63 78.05 12/28/2018 15:53:11 -78.31, 138.54 78.05 2.04 7
5 12/30/2018 21:27:02 78.32,-124.73 101.82 12/30/2018 21:26:46 78.32,-124.86 101.81 2.84 16
6 12/30/2018 22:16:31 -78.26, 42.58 78.27 12/30/2018 22:17:41 -78.29, 42.60 78.21 4.26 70
7 01/02/2019 03:00:48 -78.34, -28.11 78.36 01/02/2019 03:00:11 -78.32, -28.08 78.38 2.37 37
8 01/02/2019 03:50:15 78.28, 139.24 101.57 01/02/2019 03:51:15 78.29, 139.32 101.60 2.41 60
9 01/04/2019 08:34:32 78.36, 68.58 101.45 01/04/2019 08:33:45 78.33, 68.53 101.41 3.72 47




NCC Satellite Simultaneous Nadir Overpasses (SNOs) Prediction Service
